Tiempo cada hora Murzinki

Hoy, 20 Octubre, Martes

Tiempo Temperatura Precipitaciones Viento Presión Humedad
00:00 +3°C° 0 mm 4 mps 749 mmHg 80%
01:00 +1°C° 0 mm 4 mps 749 mmHg 80%
02:00 +1°C° 0 mm 4 mps 749 mmHg 81%
03:00 +1°C° 0 mm 4 mps 749 mmHg 84%
04:00 +1°C° 0 mm 4 mps 749 mmHg 84%
05:00 0°C° 0 mm 5 mps 749 mmHg 85%
06:00 0°C° 0 mm 5 mps 749 mmHg 85%
07:00 +1°C° 0 mm 5 mps 749 mmHg 82%
08:00 +1°C° 0 mm 6 mps 749 mmHg 80%
09:00 +2°C° 0 mm 6 mps 750 mmHg 77%
10:00 +2°C° 0 mm 6 mps 750 mmHg 75%
11:00 +2°C° 0 mm 6 mps 749 mmHg 72%
12:00 +3°C° 0 mm 6 mps 749 mmHg 70%
13:00 +3°C° 0 mm 6 mps 749 mmHg 69%
14:00 +3°C° 0 mm 6 mps 750 mmHg 69%
15:00 +3°C° 0 mm 6 mps 749 mmHg 67%
16:00 +3°C° 0 mm 5 mps 749 mmHg 70%
17:00 +2°C° 0 mm 5 mps 749 mmHg 72%
18:00 +3°C° 0 mm 4 mps 750 mmHg 75%
19:00 +2°C° 0 mm 5 mps 750 mmHg 79%
20:00 +1°C° 0 mm 5 mps 750 mmHg 83%
21:00 +1°C° 0 mm 6 mps 751 mmHg 88%
22:00 +1°C° 0 mm 5 mps 751 mmHg 87%
23:00 0°C° 0 mm 4 mps 751 mmHg 86%

Mañana, 21 Octubre, Miércoles

Tiempo Temperatura Precipitaciones Viento Presión Humedad
00:00 0°C° 0 mm 3 mps 751 mmHg 86%
01:00 -1°C° 0 mm 4 mps 752 mmHg 86%
02:00 -1°C° 0 mm 4 mps 752 mmHg 87%
03:00 -1°C° 0 mm 4 mps 753 mmHg 88%
04:00 -1°C° 0 mm 4 mps 753 mmHg 83%
05:00 -1°C° 0 mm 5 mps 753 mmHg 78%
06:00 -1°C° 0 mm 5 mps 753 mmHg 73%
07:00 -1°C° 0 mm 5 mps 754 mmHg 75%
08:00 -1°C° 0 mm 5 mps 754 mmHg 77%
09:00 -1°C° 0 mm 5 mps 755 mmHg 79%
10:00 0°C° 0 mm 5 mps 755 mmHg 72%
11:00 +1°C° 0 mm 5 mps 755 mmHg 66%
12:00 +1°C° 0 mm 5 mps 755 mmHg 60%
13:00 +2°C° 0 mm 5 mps 755 mmHg 59%
14:00 +2°C° 0 mm 5 mps 755 mmHg 59%
15:00 +2°C° 0 mm 5 mps 755 mmHg 58%
16:00 +1°C° 0 mm 4 mps 755 mmHg 62%
17:00 +2°C° 0 mm 3 mps 755 mmHg 65%
18:00 +2°C° 0 mm 2 mps 754 mmHg 69%
19:00 +2°C° 0 mm 2 mps 755 mmHg 73%
20:00 +2°C° 0 mm 2 mps 755 mmHg 76%
21:00 +1°C° 0 mm 2 mps 755 mmHg 79%
22:00 +1°C° 0 mm 2 mps 755 mmHg 84%
23:00 +1°C° 0 mm 2 mps 754 mmHg 88%

Pasado mañana, 22 Octubre, Jueves

Tiempo Temperatura Precipitaciones Viento Presión Humedad
00:00 +1°C° 0 mm 2 mps 754 mmHg 92%
01:00 +1°C° 0 mm 2 mps 754 mmHg 93%
02:00 +3°C° 0 mm 1 mps 754 mmHg 94%
03:00 +3°C° 0 mm 1 mps 754 mmHg 95%
04:00 +3°C° 0 mm 1 mps 754 mmHg 94%
05:00 +2°C° 0 mm 2 mps 754 mmHg 94%
06:00 +3°C° 0 mm 2 mps 754 mmHg 93%
07:00 +3°C° 0 mm 2 mps 754 mmHg 92%
08:00 +4°C° 0 mm 1 mps 754 mmHg 92%
09:00 +4°C° 0 mm 1 mps 754 mmHg 91%
10:00 +5°C° 0 mm 1 mps 754 mmHg 89%
11:00 +4°C° 0 mm 2 mps 754 mmHg 88%
12:00 +3°C° 0 mm 3 mps 754 mmHg 86%
13:00 +4°C° 0 mm 3 mps 754 mmHg 85%
14:00 +5°C° 0 mm 2 mps 754 mmHg 84%
15:00 +5°C° 0 mm 2 mps 753 mmHg 83%
16:00 +4°C° 0.1 mm 3 mps 753 mmHg 85%
17:00 +4°C° 0.1 mm 3 mps 752 mmHg 87%
18:00 +4°C° 0.1 mm 3 mps 752 mmHg 89%
19:00 +4°C° 0 mm 3 mps 752 mmHg 89%
20:00 +4°C° 0 mm 3 mps 751 mmHg 89%
21:00 +4°C° 0 mm 3 mps 751 mmHg 89%
22:00 +4°C° 0.2 mm 3 mps 750 mmHg 89%
23:00 +5°C° 0.2 mm 4 mps 750 mmHg 90%

23 Octubre, Viernes

Tiempo Temperatura Precipitaciones Viento Presión Humedad
00:00 +5°C° 0.2 mm 4 mps 749 mmHg 91%
01:00 +5°C° 0.7 mm 4 mps 748 mmHg 92%
02:00 +5°C° 0.7 mm 4 mps 748 mmHg 93%
03:00 +5°C° 0.7 mm 4 mps 747 mmHg 95%
04:00 +6°C° 0.5 mm 4 mps 747 mmHg 95%
05:00 +6°C° 0.5 mm 4 mps 746 mmHg 95%
06:00 +6°C° 0.5 mm 4 mps 746 mmHg 95%
07:00 +7°C° 0.2 mm 4 mps 746 mmHg 95%
08:00 +7°C° 0.2 mm 4 mps 746 mmHg 95%
09:00 +8°C° 0.2 mm 4 mps 746 mmHg 95%
10:00 +10°C° 0.1 mm 4 mps 746 mmHg 91%
11:00 +10°C° 0.1 mm 5 mps 746 mmHg 86%
12:00 +12°C° 0.1 mm 5 mps 746 mmHg 82%
13:00 +12°C° 0 mm 5 mps 746 mmHg 82%
14:00 +12°C° 0 mm 5 mps 746 mmHg 81%
15:00 +12°C° 0 mm 4 mps 747 mmHg 80%
16:00 +11°C° 0 mm 4 mps 746 mmHg 84%
17:00 +10°C° 0 mm 3 mps 746 mmHg 88%
18:00 +9°C° 0 mm 3 mps 746 mmHg 92%
19:00 +10°C° 0 mm 3 mps 746 mmHg 92%
20:00 +10°C° 0 mm 3 mps 745 mmHg 92%
21:00 +10°C° 0 mm 4 mps 745 mmHg 92%
22:00 +9°C° 0.5 mm 5 mps 744 mmHg 92%
23:00 +10°C° 0.5 mm 6 mps 743 mmHg 91%

24 Octubre, Sábado

Tiempo Temperatura Precipitaciones Viento Presión Humedad
00:00 +10°C° 0.5 mm 7 mps 742 mmHg 91%
01:00 +10°C° 0.9 mm 7 mps 742 mmHg 91%
02:00 +11°C° 0.9 mm 7 mps 742 mmHg 91%
03:00 +11°C° 0.9 mm 7 mps 741 mmHg 91%
04:00 +10°C° 0.2 mm 6 mps 742 mmHg 91%
05:00 +10°C° 0.2 mm 6 mps 742 mmHg 90%
06:00 +10°C° 0.2 mm 5 mps 743 mmHg 90%
07:00 +10°C° 0.1 mm 5 mps 743 mmHg 87%
08:00 +10°C° 0.1 mm 6 mps 743 mmHg 84%
09:00 +10°C° 0.1 mm 6 mps 744 mmHg 82%
10:00 +10°C° 0 mm 6 mps 744 mmHg 76%
11:00 +11°C° 0 mm 6 mps 745 mmHg 70%
12:00 +13°C° 0 mm 6 mps 746 mmHg 65%
13:00 +13°C° 0 mm 5 mps 746 mmHg 65%
14:00 +13°C° 0 mm 5 mps 746 mmHg 65%
15:00 +13°C° 0 mm 4 mps 747 mmHg 65%
16:00 +12°C° 0 mm 3 mps 747 mmHg 70%
17:00 +11°C° 0 mm 3 mps 747 mmHg 75%
18:00 +10°C° 0 mm 2 mps 747 mmHg 80%
19:00 +10°C° 0 mm 2 mps 747 mmHg 81%
20:00 +9°C° 0 mm 2 mps 747 mmHg 82%
21:00 +9°C° 0 mm 2 mps 748 mmHg 83%
22:00 +9°C° 0 mm 2 mps 748 mmHg 83%
23:00 +9°C° 0 mm 2 mps 747 mmHg 84%

25 Octubre, Domingo

Tiempo Temperatura Precipitaciones Viento Presión Humedad
00:00 +9°C° 0 mm 2 mps 747 mmHg 85%
01:00 +9°C° 0 mm 2 mps 747 mmHg 85%
02:00 +8°C° 0 mm 2 mps 747 mmHg 85%
03:00 +8°C° 0 mm 2 mps 747 mmHg 86%
04:00 +8°C° 0 mm 2 mps 746 mmHg 88%
05:00 +8°C° 0 mm 2 mps 746 mmHg 90%
06:00 +7°C° 0 mm 2 mps 746 mmHg 92%
07:00 +8°C° 0.1 mm 3 mps 745 mmHg 91%
08:00 +8°C° 0.1 mm 3 mps 745 mmHg 90%
09:00 +7°C° 0.1 mm 4 mps 744 mmHg 89%
10:00 +7°C° 0.8 mm 4 mps 744 mmHg 90%
11:00 +7°C° 0.8 mm 4 mps 743 mmHg 92%
12:00 +8°C° 0.8 mm 4 mps 743 mmHg 94%
13:00 +8°C° 1.5 mm 4 mps 742 mmHg 94%
14:00 +8°C° 1.5 mm 4 mps 742 mmHg 94%
15:00 +8°C° 1.5 mm 4 mps 741 mmHg 94%
16:00 +9°C° 0.1 mm 3 mps 741 mmHg 94%
17:00 +9°C° 0.1 mm 2 mps 741 mmHg 95%
18:00 +9°C° 0.1 mm 2 mps 741 mmHg 95%
19:00 +9°C° 0.1 mm 1 mps 741 mmHg 95%
20:00 +9°C° 0.1 mm 1 mps 741 mmHg 95%
21:00 +9°C° 0.1 mm 1 mps 742 mmHg 95%
22:00 +9°C° 0 mm 1 mps 742 mmHg 95%
23:00 +8°C° 0 mm 2 mps 742 mmHg 96%

26 Octubre, Lunes

Tiempo Temperatura Precipitaciones Viento Presión Humedad
00:00 +7°C° 0 mm 3 mps 743 mmHg 96%
01:00 +7°C° 0 mm 4 mps 743 mmHg 94%
02:00 +7°C° 0 mm 5 mps 744 mmHg 92%
03:00 +6°C° 0 mm 7 mps 745 mmHg 90%
04:00 +6°C° 0 mm 7 mps 745 mmHg 88%
05:00 +6°C° 0 mm 7 mps 746 mmHg 86%
06:00 +5°C° 0 mm 7 mps 747 mmHg 84%
07:00 +5°C° 0 mm 7 mps 748 mmHg 83%
08:00 +4°C° 0 mm 7 mps 749 mmHg 82%
09:00 +4°C° 0 mm 7 mps 750 mmHg 81%
10:00 +4°C° 0 mm 7 mps 750 mmHg 76%
11:00 +4°C° 0 mm 7 mps 751 mmHg 70%
12:00 +4°C° 0 mm 7 mps 752 mmHg 65%
13:00 +4°C° 0 mm 6 mps 752 mmHg 64%
14:00 +4°C° 0 mm 6 mps 753 mmHg 63%
15:00 +4°C° 0 mm 6 mps 753 mmHg 62%
16:00 +3°C° 0 mm 5 mps 754 mmHg 66%
17:00 +2°C° 0 mm 5 mps 754 mmHg 70%
18:00 +1°C° 0 mm 4 mps 755 mmHg 74%
19:00 +1°C° 0 mm 4 mps 756 mmHg 76%
20:00 +1°C° 0 mm 4 mps 756 mmHg 79%
21:00 +1°C° 0 mm 3 mps 757 mmHg 82%
22:00 +1°C° 0 mm 3 mps 757 mmHg 84%
23:00 +1°C° 0 mm 3 mps 757 mmHg 87%
Mostrar más

Necesitamos Su Consentimiento

Meteoprog y nuestros Proveedores de Servicios pueden almacenar y acceder a sus datos personales como cookies, identificadores de dispositivo u otras tecnologías similares de su dispositivo y procesar dichos datos para personalizar contenido y anuncios, además de ofrecer funciones de redes sociales y analizar el tráfico.

  • Almacenar y/o acceder a información en su dispositivo

    Se puede almacenar o acceder a cookies, identificadores de dispositivo u otra información de su dispositivo para los fines anteriormente indicados.

  • Anuncios y contenido personalizados, medición de anuncios y contenido, percepciones del público, y desarrollo de productos

    Los anuncios y el contenido pueden personalizarse en base a su perfil. Se pueden añadir más datos para personalizar mejor los anuncios y contenidos. Se puede medir el rendimiento de los anuncios y contenidos. Se puede obtener la percepción sobre el público que ha visto los anuncios y contenidos. Dichos datos pueden usarse para desarrollar o mejorar la experiencia del usuario, sistemas y software.

Al hacer clic en ‘Estoy De Acuerdo’ usted permitirá el uso de las cookies, identificadores de dispositivo, balizas web u otras tecnologías similares indicadas. Su configuración puede cambiarse desde el navegador de su dispositivo.

Para ciertos fines, los intereses legítimos pueden ser considerados por encima del consentimiento. Puede leer más sobre ello en nuestra Política de Privacidad y Cookies.